Flag for U.S.A. Weather past 2 weeks in Stockton, California, U.S.A.

Now
47 °F

Clear.


Feels Like: 40 °F
Forecast: 41 / 54 °F
Wind: 17 mph from Northwest

Location: Stockton Metropolitan Airport

Current Time: Dec 25, 2014 at 4:11:34 AM

Latest Report: Dec 25, 2014 at 3:55 AM


Visibility: 10 mi

Pressure: 30.02 "Hg

Humidity: 61%

Dew point: 34 °F

Location of StocktonLocation

Historic Weather in Stockton — Graph

°F

Stockton temperature yesterday

Maximum temperature yesterday: 61 °F (at 2:02 PM)
Minimum temperature yesterday: 48 °F (at 10:55 PM)
Average temperature yesterday: 52 °F

Past Weeks' High & Low Weather Summary

 TemperatureHumidityPressure
High65 °F (Dec 11, 9:55 AM)100% (Dec 10, 3:04 AM)30.29 "Hg (Dec 10, 3:04 AM)
Low42 °F (Dec 13, 11:55 PM)56% (Dec 11, 9:55 AM)29.58 "Hg (Dec 11, 6:55 AM)
Average53 °F89%30.05 "Hg
* Reported Dec 10 2:55 AM — Dec 25 2:55 AM, Stockton, Weather by CustomWeather, © 2014

Note: Actual official high and low records may vary slightly from our data, if they occured in-between our weather recording intervals... More about our weather records

Advertising

Stockton weather history for previous 24 hours

 ConditionsComfort  
Time TempWeatherWind HumidityBarometerVisibility
2:55 AM
Dec 25
47 °FClear.18 mph64%30.02 "Hg10 mi
1:55 AM48 °FClear.22 mph61%30.01 "Hg10 mi
12:55 AM49 °FClear.22 mph57%30.01 "Hg10 mi
11:55 PM
Dec 24
48 °FClear.16 mph66%30.00 "Hg10 mi
10:55 PM48 °FClear.15 mph77%30.01 "Hg10 mi
9:55 PM49 °FClear.13 mph74%29.99 "Hg10 mi
8:55 PM50 °FClear.15 mph74%29.97 "Hg10 mi
7:55 PM51 °FClear.20 mph71%29.94 "Hg10 mi
6:55 PM52 °FClear.18 mph72%29.93 "Hg10 mi
5:55 PM53 °FClear.18 mph72%29.92 "Hg10 mi
4:55 PM56 °FPassing clouds.20 mph75%29.90 "Hg10 mi
3:55 PM56 °FLight rain. Partly sunny.14 mph93%29.90 "Hg7 mi
2:55 PM59 °FOvercast.9 mph81%29.90 "Hg10 mi
2:02 PM61 °FBroken clouds.15 mph72%29.93 "Hg10 mi
12:55 PM58 °FPartly sunny.7 mph84%29.97 "Hg10 mi
11:55 AM56 °FScattered clouds.3 mph87%30.01 "Hg10 mi
10:55 AM53 °FScattered clouds.7 mph93%30.06 "Hg10 mi
9:55 AM52 °FFog.6 mph100%30.07 "Hg1 mi
8:55 AM51 °FFog.7 mph100%30.04 "Hg0 mi
7:55 AM50 °FFog.7 mph100%30.03 "Hg0 mi
6:55 AM51 °FFog.7 mph100%30.04 "Hg0 mi
5:55 AM51 °FFog.7 mph100%30.05 "Hg0 mi
4:55 AM51 °FFog.9 mph100%30.06 "Hg0 mi
Weather by CustomWeather, © 2014

See weather overviewHow to use our weather pages